Location: Baia Mare
(47.6567°N, 23.5850°E)
Time: 12:18:29
(UTC+03:00)

ISS - Pass Details

Date: 07 February 2016
Orbit: 417 x 420 km, 51.6° (Epoch: 24 October)

Event Time Altitude Azimuth Distance (km) Brightness Sun altitude
Rises 18:44:35 0° 289° (WNW) 2,443 1.3 -12.1°
Reaches altitude 10° 18:47:00 10° 274° (W) 1,562 0.5 -12.5°
Maximum altitude 18:49:50 23° 221° (SW) 987 -1.3 -12.9°
Drops below altitude 10° 18:52:37 10° 167° (SSE) 1,537 -0.9 -13.4°
Enters shadow 18:55:15 -1° 151° (SSE) 2,495 0.0 -13.8°
